User: anonymous   Login
Location: Caltech
(34.1382°N, 118.1253°W)
Time: 07:18:14
(UTC-07:00)
Language:

Cosmos 2360 Rocket - Orbit

View from above orbital plane
View from above orbital plane
View from above satellite
View from above satellite

Ground track
Ground track

The orbit data is extracted from the following two-line orbital elements,

1 25407U 98045B   16151.48455212 -.00000074  00000-0 -13155-4 0  9991
2 25407  71.0098 125.6566 0005725  63.0848 297.0859 14.15743133922010
Epoch (UTC): 30 May 2016 11:37:45
Eccentricity: 0.0005725
inclination: 71.0098°
perigee height: 835 km
apogee height: 844 km
right ascension of ascending node: 125.6566°
argument of perigee: 63.0848°
revolutions per day: 14.15743133
mean anomaly at epoch: 297.0859°
orbit number at epoch: 92201

The dashed part of the orbit path shows where the satellite is in the earth's shadow,  

DLR